GEFSSE_prec_meanprecacc_168.txt.gz
Total_Precipitation_Accumulation
0.08 0.09 0.17 0.13 0.12 0.17 0.21 0.19 0.17 0.15 0.15 0.17 0.15 0.12 0.15 0.17 0.15 0.13 0.13 0.17 0.24 0.28 0.30 0.33 0.38 0.43 0.42 0.42 0.42 0.37 0.36 0.41 0.46 0.49 0.45 0.46 0.55 0.70 0.94 1.05 1.04 0.73 0.63
0.03 0.07 0.16 0.15 0.14 0.17 0.17 0.17 0.16 0.16 0.14 0.12 0.13 0.15 0.19 0.18 0.17 0.14 0.13 0.15 0.20 0.24 0.25 0.25 0.27 0.33 0.37 0.38 0.37 0.32 0.33 0.37 0.47 0.52 0.47 0.40 0.55 0.79 0.96 0.98 1.07 0.71 0.62
0.02 0.03 0.09 0.15 0.14 0.14 0.13 0.13 0.17 0.17 0.13 0.11 0.13 0.16 0.18 0.17 0.17 0.16 0.17 0.15 0.16 0.19 0.20 0.19 0.21 0.26 0.28 0.30 0.31 0.32 0.31 0.34 0.46 0.59 0.77 0.54 0.40 0.77 0.90 0.89 0.80 0.59 0.51
0.02 0.03 0.05 0.11 0.11 0.10 0.10 0.11 0.15 0.16 0.12 0.12 0.18 0.19 0.15 0.17 0.19 0.19 0.19 0.16 0.17 0.15 0.15 0.17 0.20 0.19 0.19 0.19 0.23 0.30 0.34 0.44 0.63 0.89 1.16 0.70 0.40 0.55 0.72 0.66 0.55 0.47 0.46
0.02 0.02 0.04 0.09 0.10 0.09 0.09 0.10 0.13 0.15 0.13 0.13 0.16 0.17 0.15 0.18 0.21 0.20 0.17 0.17 0.20 0.16 0.12 0.12 0.15 0.14 0.14 0.15 0.19 0.28 0.36 0.48 0.74 1.00 0.98 0.84 0.73 0.59 0.58 0.58 0.57 0.55 0.54
0.04 0.02 0.05 0.08 0.09 0.08 0.09 0.10 0.12 0.13 0.13 0.12 0.12 0.15 0.15 0.20 0.27 0.25 0.20 0.22 0.25 0.24 0.16 0.10 0.10 0.12 0.14 0.15 0.17 0.26 0.36 0.53 0.75 0.70 0.63 0.72 0.77 0.68 0.60 0.72 0.85 0.80 0.72
0.05 0.04 0.05 0.09 0.09 0.09 0.09 0.09 0.11 0.12 0.12 0.10 0.10 0.12 0.11 0.17 0.22 0.24 0.22 0.22 0.22 0.21 0.17 0.14 0.12 0.13 0.16 0.18 0.21 0.28 0.42 0.63 0.76 0.65 0.62 0.74 0.74 0.58 0.68 0.91 1.16 1.08 0.91
0.05 0.04 0.06 0.11 0.11 0.10 0.10 0.10 0.11 0.11 0.10 0.10 0.10 0.10 0.11 0.14 0.17 0.19 0.19 0.18 0.17 0.14 0.13 0.14 0.16 0.16 0.17 0.19 0.24 0.31 0.42 0.49 0.56 0.64 0.61 0.64 0.50 0.51 0.76 1.00 1.20 1.16 0.98
0.13 0.08 0.10 0.11 0.13 0.12 0.12 0.12 0.13 0.12 0.11 0.12 0.11 0.11 0.11 0.13 0.15 0.17 0.18 0.17 0.16 0.17 0.18 0.18 0.18 0.18 0.19 0.22 0.25 0.32 0.44 0.48 0.53 0.71 0.74 0.78 0.66 0.74 1.01 1.15 1.17 1.19 1.07
0.33 0.22 0.21 0.21 0.20 0.17 0.14 0.15 0.16 0.16 0.14 0.15 0.14 0.13 0.14 0.15 0.17 0.21 0.22 0.21 0.20 0.23 0.25 0.27 0.29 0.27 0.28 0.30 0.34 0.44 0.53 0.52 0.59 0.77 0.94 0.80 0.77 0.98 1.28 1.39 1.37 1.34 1.30
0.69 0.54 0.43 0.37 0.30 0.24 0.21 0.20 0.23 0.24 0.24 0.23 0.23 0.22 0.23 0.27 0.35 0.42 0.36 0.41 0.40 0.43 0.45 0.50 0.53 0.51 0.47 0.41 0.51 0.67 0.64 0.64 0.77 0.95 1.03 0.88 0.85 1.11 1.36 1.49 1.52 1.52 1.46
0.94 0.83 0.73 0.67 0.45 0.35 0.36 0.45 0.47 0.43 0.44 0.45 0.55 0.54 0.56 0.66 0.66 0.53 0.58 0.77 0.84 0.96 0.96 1.01 1.07 0.93 0.78 0.70 1.11 1.34 0.77 0.84 0.95 1.12 1.32 1.14 1.14 1.43 1.69 1.58 1.48 1.51 1.45
1.19 0.91 0.89 1.05 0.86 0.71 0.76 0.69 0.66 0.68 0.77 0.79 0.80 0.83 0.95 0.85 0.71 0.72 0.79 0.98 1.15 1.31 1.44 1.77 1.85 1.48 1.46 1.49 1.60 1.56 1.02 0.87 0.94 0.94 1.32 1.38 1.44 1.79 2.09 1.87 1.65 1.57 1.52
1.34 1.03 0.92 1.02 1.15 1.05 0.93 0.90 0.85 0.81 0.89 0.94 1.07 1.11 1.24 1.16 1.07 1.12 1.27 1.37 1.56 1.70 1.96 2.12 2.35 2.15 1.92 1.71 1.64 1.52 1.35 1.29 1.18 1.30 1.62 1.38 1.49 1.88 2.21 2.10 1.86 1.70 1.62
1.61 1.36 1.14 1.10 1.23 1.22 1.14 1.09 1.00 0.97 0.98 1.15 1.30 1.39 1.49 1.54 1.63 1.72 1.65 1.79 1.83 1.95 2.12 2.42 2.47 2.61 2.63 2.53 2.16 1.88 1.79 1.67 1.54 1.66 1.88 1.76 1.56 1.68 2.06 2.35 2.19 1.93 1.77
2.06 1.87 1.57 1.35 1.25 1.27 1.27 1.29 1.32 1.28 1.42 1.53 1.69 1.74 1.90 2.06 2.18 2.34 2.32 2.30 2.11 2.12 2.35 2.59 2.74 3.14 3.03 2.85 2.34 2.12 1.92 1.86 1.65 1.58 1.82 2.00 1.68 1.57 1.78 2.23 2.46 2.32 2.12
2.32 2.29 2.12 1.91 1.83 1.87 1.99 1.94 1.81 1.92 2.01 2.09 2.18 2.19 2.28 2.34 2.49 2.63 2.59 2.48 2.45 2.45 2.59 2.73 2.89 3.01 2.75 2.63 2.47 2.30 2.05 1.86 1.63 1.56 1.66 1.84 1.75 1.60 1.68 1.90 2.25 2.38 2.33
2.42 2.68 2.71 2.52 2.60 2.71 2.82 2.74 2.53 2.51 2.52 2.52 2.48 2.47 2.48 2.55 2.69 2.91 2.72 2.57 2.85 2.73 2.83 3.13 3.12 3.08 2.89 2.75 2.59 2.36 2.16 1.91 1.55 1.47 1.47 1.63 1.87 1.68 1.70 1.88 2.02 2.11 2.35
2.57 2.98 3.14 3.20 3.36 3.37 3.36 3.30 3.23 3.11 2.96 2.72 2.71 2.66 2.49 2.48 2.58 2.79 2.62 2.63 2.77 3.01 3.02 2.83 3.24 3.20 3.02 2.88 2.44 2.20 1.92 1.67 1.48 1.37 1.37 1.40 1.60 1.51 1.51 1.67 1.79 1.87 2.27
2.99 3.32 3.71 3.84 3.91 3.67 3.52 3.45 3.29 3.05 2.83 2.71 2.71 2.59 2.40 2.41 2.43 2.76 2.59 2.52 2.66 2.88 2.83 2.83 3.08 3.07 2.84 2.84 2.34 1.94 1.75 1.45 1.40 1.40 1.25 1.27 1.31 1.18 1.24 1.48 1.88 1.63 1.77
3.52 3.68 3.90 4.25 4.36 4.09 3.99 3.87 3.71 3.35 3.17 2.86 2.56 2.26 2.17 2.15 2.27 2.60 2.40 2.58 2.57 2.58 2.57 2.63 2.86 2.89 2.65 2.74 2.56 2.06 1.57 1.24 1.18 1.21 1.22 1.23 1.15 1.23 1.48 1.71 1.87 1.89 1.78
3.30 3.70 3.92 3.91 3.80 3.53 3.54 3.72 3.90 3.82 3.39 2.84 2.55 2.39 2.11 2.02 2.10 2.25 2.33 2.24 2.30 2.35 2.37 2.42 2.61 2.47 2.24 2.44 2.51 2.41 1.76 1.38 1.08 0.91 1.17 1.21 1.16 1.33 1.44 1.48 1.72 1.98 2.00
2.71 3.08 3.13 2.99 2.90 2.74 2.70 2.90 3.06 3.28 3.12 2.78 2.44 2.23 2.06 1.96 1.91 1.98 2.06 2.06 2.08 2.03 2.09 2.25 2.25 2.19 2.06 2.08 2.28 2.44 2.03 1.57 1.27 0.92 0.85 0.94 1.12 1.25 1.29 1.44 1.45 1.59 1.68
1.88 1.99 2.09 2.17 2.20 2.22 2.23 2.37 2.51 2.67 2.63 2.52 2.43 2.17 1.91 1.71 1.65 1.67 1.67 1.69 1.75 1.79 1.92 1.82 1.86 2.03 2.05 1.92 2.02 2.06 1.98 1.92 1.74 1.22 0.90 0.88 1.08 1.14 1.15 1.15 1.26 1.43 1.54
1.53 1.66 1.77 1.92 2.04 2.13 2.12 2.16 2.31 2.55 2.50 2.30 2.13 1.96 1.81 1.66 1.54 1.46 1.49 1.48 1.47 1.50 1.61 1.64 1.84 1.87 1.91 1.87 1.84 1.84 1.92 1.91 1.76 1.52 1.16 1.05 1.04 0.95 1.00 1.06 1.17 1.38 1.56
1.37 1.50 1.63 1.70 1.74 1.80 1.85 1.86 1.84 1.93 1.94 1.81 1.69 1.63 1.51 1.39 1.32 1.33 1.33 1.31 1.31 1.36 1.49 1.53 1.56 1.59 1.63 1.67 1.64 1.64 1.73 1.67 1.60 1.64 1.37 1.26 1.22 1.03 1.05 1.09 1.13 1.26 1.35

GEFSSE_prec_meanprecacc_174.txt.gz
Total_Precipitation_Accumulation
0.09 0.12 0.25 0.23 0.19 0.22 0.26 0.24 0.21 0.19 0.19 0.20 0.19 0.17 0.17 0.20 0.17 0.14 0.15 0.20 0.28 0.33 0.34 0.37 0.46 0.52 0.51 0.51 0.50 0.43 0.40 0.45 0.49 0.54 0.50 0.51 0.62 0.76 1.00 1.11 1.09 0.77 0.66
0.06 0.12 0.23 0.24 0.20 0.21 0.22 0.22 0.19 0.19 0.17 0.15 0.16 0.18 0.21 0.20 0.20 0.16 0.15 0.18 0.24 0.28 0.29 0.29 0.33 0.43 0.47 0.46 0.46 0.38 0.37 0.42 0.51 0.57 0.52 0.45 0.61 0.84 1.03 1.03 1.13 0.76 0.67
0.09 0.09 0.14 0.20 0.18 0.16 0.15 0.16 0.19 0.19 0.16 0.14 0.16 0.18 0.19 0.19 0.18 0.18 0.19 0.18 0.20 0.24 0.26 0.25 0.28 0.32 0.34 0.40 0.43 0.41 0.40 0.41 0.52 0.64 0.82 0.58 0.43 0.82 0.96 0.94 0.85 0.64 0.57
0.11 0.09 0.10 0.15 0.15 0.13 0.12 0.13 0.17 0.18 0.14 0.14 0.20 0.21 0.16 0.18 0.21 0.20 0.21 0.19 0.21 0.19 0.20 0.22 0.27 0.24 0.25 0.30 0.29 0.36 0.43 0.51 0.69 0.92 1.19 0.73 0.43 0.60 0.80 0.72 0.62 0.54 0.51
0.10 0.09 0.10 0.14 0.14 0.12 0.11 0.11 0.14 0.16 0.14 0.14 0.17 0.18 0.15 0.19 0.22 0.22 0.20 0.21 0.24 0.20 0.15 0.16 0.21 0.19 0.19 0.20 0.22 0.33 0.44 0.54 0.78 1.02 1.02 0.91 0.80 0.66 0.69 0.68 0.64 0.62 0.57
0.06 0.06 0.07 0.12 0.13 0.11 0.11 0.11 0.13 0.15 0.14 0.13 0.13 0.16 0.16 0.22 0.28 0.27 0.22 0.25 0.29 0.27 0.18 0.13 0.14 0.17 0.19 0.18 0.20 0.33 0.43 0.59 0.80 0.73 0.67 0.77 0.83 0.77 0.72 0.83 0.93 0.86 0.75
0.06 0.06 0.08 0.13 0.12 0.10 0.11 0.11 0.12 0.13 0.13 0.11 0.12 0.13 0.14 0.19 0.24 0.27 0.24 0.25 0.25 0.24 0.20 0.17 0.15 0.18 0.23 0.24 0.26 0.35 0.47 0.68 0.80 0.67 0.65 0.80 0.78 0.65 0.77 1.00 1.25 1.17 0.97
0.05 0.05 0.08 0.14 0.13 0.11 0.11 0.12 0.12 0.12 0.12 0.11 0.12 0.12 0.13 0.16 0.20 0.23 0.22 0.21 0.19 0.16 0.15 0.17 0.20 0.22 0.25 0.29 0.30 0.37 0.47 0.52 0.57 0.66 0.63 0.69 0.53 0.55 0.81 1.07 1.27 1.21 1.03
0.13 0.08 0.11 0.13 0.14 0.13 0.14 0.14 0.15 0.13 0.13 0.13 0.13 0.12 0.13 0.15 0.17 0.20 0.21 0.20 0.19 0.19 0.19 0.21 0.22 0.25 0.27 0.31 0.32 0.39 0.51 0.53 0.55 0.73 0.75 0.82 0.69 0.78 1.05 1.21 1.23 1.25 1.11
0.33 0.23 0.23 0.23 0.22 0.19 0.16 0.17 0.20 0.18 0.16 0.16 0.16 0.16 0.16 0.17 0.19 0.22 0.24 0.23 0.23 0.24 0.26 0.28 0.32 0.33 0.33 0.36 0.40 0.49 0.59 0.57 0.61 0.77 0.95 0.82 0.81 1.03 1.33 1.44 1.43 1.41 1.35
0.70 0.54 0.45 0.40 0.32 0.26 0.22 0.22 0.26 0.27 0.26 0.25 0.26 0.25 0.26 0.31 0.37 0.44 0.37 0.42 0.42 0.44 0.46 0.51 0.55 0.55 0.51 0.47 0.57 0.72 0.67 0.66 0.79 0.97 1.06 0.91 0.91 1.18 1.42 1.54 1.58 1.59 1.52
0.95 0.84 0.75 0.69 0.47 0.37 0.37 0.47 0.50 0.46 0.46 0.47 0.58 0.56 0.59 0.70 0.70 0.54 0.60 0.80 0.88 0.99 0.98 1.03 1.09 0.95 0.80 0.74 1.15 1.38 0.80 0.85 0.96 1.15 1.36 1.19 1.22 1.52 1.75 1.63 1.56 1.58 1.51
1.20 0.93 0.90 1.06 0.88 0.73 0.78 0.71 0.67 0.70 0.79 0.81 0.82 0.85 0.97 0.87 0.74 0.73 0.82 1.01 1.18 1.35 1.47 1.78 1.86 1.49 1.47 1.53 1.65 1.60 1.05 0.89 0.96 0.98 1.36 1.43 1.51 1.87 2.16 1.95 1.74 1.64 1.57
1.36 1.03 0.92 1.03 1.17 1.07 0.95 0.92 0.86 0.82 0.90 0.95 1.09 1.12 1.25 1.17 1.09 1.14 1.29 1.40 1.59 1.73 1.99 2.14 2.38 2.17 1.93 1.73 1.67 1.55 1.38 1.31 1.21 1.35 1.67 1.42 1.54 1.93 2.30 2.22 1.98 1.78 1.67
1.62 1.37 1.16 1.11 1.25 1.24 1.17 1.12 1.02 0.98 1.00 1.16 1.31 1.40 1.50 1.55 1.65 1.74 1.67 1.83 1.86 1.97 2.14 2.45 2.50 2.64 2.66 2.57 2.21 1.91 1.83 1.70 1.57 1.70 1.92 1.80 1.60 1.75 2.16 2.44 2.29 2.03 1.86
2.08 1.89 1.59 1.37 1.26 1.29 1.29 1.31 1.35 1.30 1.44 1.56 1.70 1.74 1.91 2.07 2.20 2.36 2.34 2.33 2.15 2.15 2.38 2.62 2.76 3.18 3.07 2.91 2.40 2.17 1.96 1.89 1.69 1.63 1.85 2.04 1.71 1.61 1.85 2.31 2.56 2.42 2.21
2.34 2.31 2.14 1.94 1.86 1.89 2.01 1.96 1.83 1.94 2.03 2.12 2.20 2.20 2.28 2.35 2.51 2.66 2.62 2.50 2.48 2.49 2.63 2.78 2.93 3.04 2.79 2.68 2.52 2.36 2.10 1.91 1.67 1.61 1.69 1.88 1.79 1.63 1.72 1.95 2.30 2.45 2.39
2.44 2.71 2.74 2.57 2.65 2.75 2.85 2.76 2.54 2.52 2.54 2.55 2.51 2.49 2.50 2.57 2.70 2.94 2.75 2.61 2.89 2.78 2.88 3.19 3.18 3.13 2.96 2.81 2.66 2.43 2.22 1.97 1.62 1.53 1.50 1.67 1.94 1.72 1.74 1.91 2.06 2.15 2.41
2.60 3.02 3.19 3.26 3.41 3.41 3.40 3.33 3.26 3.14 2.99 2.76 2.75 2.70 2.52 2.49 2.60 2.82 2.66 2.67 2.80 3.05 3.08 2.87 3.29 3.26 3.12 2.97 2.51 2.28 1.99 1.74 1.56 1.42 1.43 1.47 1.69 1.58 1.57 1.71 1.82 1.92 2.33
3.02 3.35 3.77 3.90 3.96 3.72 3.56 3.49 3.33 3.08 2.87 2.74 2.76 2.63 2.42 2.43 2.46 2.81 2.63 2.56 2.70 2.94 2.90 2.91 3.17 3.15 2.92 2.92 2.39 1.99 1.81 1.50 1.46 1.47 1.31 1.34 1.39 1.22 1.27 1.51 1.93 1.68 1.81
3.54 3.72 3.96 4.32 4.41 4.13 4.03 3.91 3.75 3.38 3.20 2.90 2.60 2.29 2.19 2.17 2.31 2.65 2.43 2.63 2.61 2.65 2.64 2.69 2.94 2.98 2.72 2.80 2.64 2.13 1.61 1.27 1.23 1.26 1.28 1.32 1.22 1.27 1.52 1.74 1.92 1.95 1.82
3.34 3.78 4.05 4.02 3.88 3.58 3.57 3.76 3.94 3.87 3.44 2.89 2.59 2.42 2.13 2.05 2.13 2.28 2.38 2.28 2.36 2.42 2.42 2.48 2.69 2.59 2.31 2.50 2.59 2.49 1.84 1.46 1.13 0.94 1.21 1.27 1.23 1.39 1.49 1.52 1.78 2.06 2.06
2.79 3.22 3.29 3.12 3.01 2.82 2.77 2.98 3.13 3.34 3.18 2.83 2.51 2.30 2.10 1.99 1.95 2.01 2.10 2.12 2.15 2.08 2.15 2.32 2.32 2.29 2.14 2.14 2.33 2.51 2.10 1.64 1.32 0.96 0.87 0.98 1.18 1.33 1.37 1.51 1.51 1.64 1.73
1.93 2.15 2.27 2.31 2.34 2.34 2.31 2.45 2.57 2.71 2.67 2.56 2.48 2.22 1.97 1.75 1.69 1.71 1.72 1.74 1.81 1.83 1.99 1.87 1.90 2.09 2.13 1.98 2.07 2.09 2.02 1.97 1.80 1.27 0.94 0.90 1.11 1.20 1.20 1.18 1.29 1.46 1.57
1.56 1.75 1.90 2.04 2.16 2.27 2.22 2.24 2.40 2.63 2.56 2.35 2.17 2.01 1.88 1.72 1.58 1.51 1.55 1.53 1.53 1.55 1.67 1.69 1.88 1.92 1.96 1.92 1.88 1.86 1.94 1.94 1.80 1.57 1.21 1.09 1.07 0.97 1.02 1.08 1.19 1.40 1.58
1.39 1.55 1.70 1.81 1.84 1.91 1.96 1.93 1.92 2.00 2.03 1.90 1.76 1.69 1.59 1.44 1.37 1.37 1.38 1.37 1.37 1.41 1.54 1.59 1.62 1.63 1.68 1.72 1.68 1.67 1.76 1.70 1.62 1.68 1.42 1.29 1.25 1.04 1.06 1.10 1.14 1.27 1.36

GEFSSE_prec_meanprecacc_180.txt.gz
Total_Precipitation_Accumulation
0.10 0.15 0.29 0.26 0.22 0.26 0.33 0.35 0.25 0.23 0.23 0.23 0.22 0.21 0.22 0.26 0.23 0.21 0.21 0.28 0.39 0.45 0.46 0.47 0.54 0.62 0.62 0.62 0.59 0.51 0.46 0.49 0.55 0.60 0.55 0.54 0.64 0.80 1.06 1.22 1.21 0.84 0.71
0.07 0.18 0.32 0.30 0.25 0.25 0.28 0.27 0.23 0.22 0.21 0.20 0.19 0.21 0.23 0.22 0.23 0.19 0.18 0.23 0.32 0.39 0.40 0.38 0.40 0.50 0.55 0.55 0.54 0.47 0.44 0.47 0.57 0.63 0.54 0.46 0.63 0.89 1.11 1.17 1.30 0.83 0.72
0.11 0.20 0.25 0.28 0.23 0.21 0.19 0.20 0.22 0.22 0.19 0.18 0.19 0.21 0.20 0.20 0.21 0.21 0.23 0.21 0.25 0.30 0.34 0.31 0.33 0.38 0.40 0.45 0.49 0.49 0.48 0.48 0.60 0.74 0.91 0.63 0.47 0.88 1.06 1.06 0.97 0.70 0.62
0.15 0.18 0.17 0.20 0.19 0.16 0.14 0.16 0.20 0.20 0.17 0.16 0.22 0.23 0.18 0.20 0.23 0.23 0.24 0.21 0.24 0.23 0.24 0.26 0.31 0.29 0.28 0.34 0.34 0.42 0.50 0.60 0.79 1.11 1.35 0.84 0.50 0.64 0.87 0.80 0.71 0.61 0.57
0.15 0.14 0.14 0.17 0.17 0.14 0.13 0.14 0.17 0.19 0.16 0.16 0.20 0.20 0.17 0.21 0.24 0.24 0.22 0.23 0.27 0.24 0.19 0.19 0.25 0.23 0.23 0.24 0.25 0.37 0.49 0.61 0.90 1.21 1.18 1.07 0.90 0.72 0.77 0.76 0.72 0.68 0.63
0.10 0.09 0.09 0.14 0.15 0.12 0.13 0.13 0.15 0.17 0.16 0.14 0.16 0.18 0.18 0.23 0.30 0.29 0.24 0.27 0.32 0.30 0.22 0.19 0.20 0.20 0.22 0.21 0.23 0.37 0.49 0.69 0.96 0.86 0.80 0.89 0.92 0.86 0.84 0.94 1.01 0.93 0.80
0.07 0.07 0.08 0.14 0.13 0.11 0.12 0.13 0.13 0.15 0.14 0.12 0.14 0.16 0.16 0.20 0.26 0.29 0.26 0.26 0.28 0.26 0.23 0.22 0.20 0.22 0.25 0.26 0.28 0.38 0.52 0.79 0.93 0.76 0.73 0.87 0.84 0.72 0.85 1.06 1.32 1.23 1.00
0.06 0.06 0.09 0.15 0.14 0.12 0.13 0.13 0.13 0.13 0.13 0.12 0.13 0.13 0.16 0.19 0.23 0.26 0.24 0.23 0.21 0.19 0.18 0.20 0.24 0.26 0.29 0.32 0.32 0.39 0.50 0.59 0.63 0.70 0.66 0.71 0.55 0.58 0.85 1.10 1.32 1.25 1.05
0.13 0.08 0.11 0.14 0.15 0.14 0.15 0.16 0.16 0.15 0.15 0.15 0.14 0.15 0.15 0.17 0.19 0.22 0.23 0.22 0.21 0.22 0.22 0.23 0.26 0.29 0.32 0.35 0.34 0.40 0.53 0.56 0.58 0.75 0.77 0.83 0.70 0.81 1.08 1.23 1.25 1.26 1.13
0.34 0.23 0.23 0.23 0.23 0.21 0.17 0.19 0.22 0.20 0.18 0.19 0.19 0.18 0.18 0.18 0.21 0.24 0.25 0.25 0.25 0.28 0.29 0.34 0.38 0.37 0.36 0.39 0.42 0.50 0.60 0.59 0.63 0.79 0.98 0.84 0.82 1.04 1.34 1.47 1.45 1.43 1.37
0.72 0.57 0.46 0.40 0.33 0.28 0.25 0.23 0.28 0.29 0.29 0.29 0.29 0.27 0.30 0.36 0.41 0.46 0.38 0.43 0.43 0.46 0.49 0.55 0.60 0.58 0.52 0.47 0.58 0.73 0.69 0.70 0.81 1.00 1.08 0.92 0.92 1.19 1.44 1.57 1.60 1.63 1.58
0.97 0.86 0.76 0.70 0.49 0.40 0.39 0.50 0.56 0.50 0.50 0.53 0.63 0.61 0.68 0.81 0.79 0.58 0.61 0.80 0.89 1.01 0.99 1.04 1.11 0.99 0.85 0.77 1.17 1.41 0.85 0.88 0.98 1.17 1.38 1.21 1.24 1.53 1.76 1.66 1.60 1.65 1.59
1.21 0.94 0.91 1.07 0.89 0.75 0.81 0.74 0.72 0.75 0.85 0.88 0.88 0.92 1.07 0.94 0.79 0.76 0.84 1.03 1.22 1.38 1.52 1.81 1.91 1.56 1.56 1.59 1.69 1.63 1.11 0.93 1.02 1.06 1.41 1.46 1.53 1.90 2.19 1.98 1.81 1.74 1.64
1.39 1.06 0.94 1.04 1.18 1.09 0.97 0.95 0.90 0.86 0.94 1.00 1.14 1.17 1.30 1.23 1.15 1.19 1.35 1.48 1.67 1.80 2.06 2.18 2.45 2.23 1.97 1.75 1.69 1.59 1.43 1.35 1.28 1.47 1.71 1.44 1.56 1.99 2.38 2.31 2.09 1.86 1.72
1.64 1.39 1.18 1.12 1.26 1.26 1.20 1.14 1.05 1.02 1.04 1.21 1.35 1.44 1.53 1.58 1.70 1.80 1.74 1.91 1.94 2.03 2.20 2.49 2.54 2.68 2.70 2.59 2.24 1.95 1.87 1.75 1.62 1.75 1.95 1.81 1.63 1.81 2.26 2.56 2.37 2.09 1.89
2.09 1.90 1.60 1.38 1.28 1.31 1.31 1.34 1.39 1.34 1.50 1.61 1.73 1.76 1.93 2.10 2.24 2.41 2.40 2.39 2.21 2.20 2.43 2.66 2.79 3.21 3.11 2.94 2.45 2.21 2.00 1.94 1.73 1.67 1.90 2.06 1.72 1.63 1.87 2.35 2.61 2.45 2.23
2.35 2.33 2.17 1.98 1.90 1.92 2.04 1.98 1.88 1.98 2.06 2.15 2.23 2.23 2.30 2.38 2.54 2.69 2.66 2.55 2.53 2.52 2.66 2.82 2.97 3.09 2.85 2.72 2.57 2.40 2.16 1.97 1.71 1.65 1.76 1.95 1.81 1.65 1.73 1.96 2.32 2.47 2.41
2.46 2.73 2.77 2.59 2.68 2.79 2.89 2.79 2.58 2.57 2.58 2.58 2.54 2.53 2.52 2.59 2.72 2.97 2.78 2.65 2.93 2.80 2.91 3.23 3.22 3.19 3.06 2.89 2.72 2.49 2.28 2.06 1.67 1.56 1.55 1.77 2.03 1.78 1.77 1.93 2.08 2.17 2.42
2.61 3.04 3.21 3.28 3.45 3.46 3.45 3.38 3.30 3.19 3.04 2.79 2.80 2.75 2.54 2.51 2.61 2.85 2.71 2.73 2.84 3.08 3.12 2.92 3.35 3.33 3.21 3.06 2.58 2.34 2.04 1.81 1.62 1.46 1.48 1.53 1.77 1.66 1.63 1.73 1.83 1.93 2.35
3.04 3.38 3.80 3.95 4.01 3.77 3.62 3.54 3.38 3.15 2.93 2.80 2.81 2.69 2.45 2.45 2.48 2.83 2.66 2.60 2.73 2.99 2.96 2.97 3.25 3.23 2.99 3.00 2.45 2.07 1.88 1.55 1.51 1.52 1.36 1.39 1.44 1.26 1.33 1.56 1.98 1.71 1.83
3.55 3.74 3.99 4.36 4.45 4.18 4.09 3.95 3.79 3.44 3.27 2.96 2.64 2.33 2.22 2.19 2.33 2.68 2.48 2.70 2.67 2.71 2.70 2.75 3.00 3.06 2.79 2.87 2.73 2.23 1.70 1.33 1.28 1.31 1.34 1.38 1.26 1.31 1.59 1.83 2.01 2.02 1.85
3.34 3.79 4.08 4.06 3.93 3.62 3.63 3.82 4.01 3.95 3.51 2.96 2.65 2.49 2.16 2.06 2.15 2.30 2.44 2.34 2.42 2.50 2.49 2.54 2.77 2.70 2.40 2.55 2.67 2.61 1.99 1.61 1.25 0.99 1.27 1.33 1.27 1.45 1.54 1.58 1.85 2.13 2.12
2.79 3.23 3.31 3.16 3.06 2.86 2.84 3.05 3.21 3.44 3.27 2.91 2.60 2.36 2.13 2.01 1.96 2.03 2.14 2.17 2.21 2.13 2.23 2.39 2.38 2.37 2.23 2.19 2.38 2.59 2.24 1.81 1.46 1.07 0.94 1.04 1.24 1.40 1.43 1.56 1.56 1.70 1.79
1.94 2.16 2.30 2.37 2.40 2.39 2.40 2.55 2.66 2.77 2.75 2.64 2.55 2.28 2.01 1.79 1.72 1.74 1.75 1.78 1.86 1.89 2.08 1.92 1.95 2.14 2.19 2.05 2.12 2.13 2.07 2.07 1.91 1.38 1.03 0.98 1.18 1.26 1.24 1.21 1.33 1.52 1.63
1.57 1.77 1.94 2.12 2.26 2.34 2.29 2.34 2.49 2.74 2.67 2.45 2.25 2.11 1.94 1.76 1.61 1.54 1.59 1.58 1.57 1.61 1.72 1.74 1.96 1.96 2.01 1.98 1.93 1.91 1.98 1.99 1.86 1.66 1.32 1.19 1.14 1.01 1.05 1.11 1.23 1.44 1.62
1.41 1.57 1.76 1.89 1.93 1.99 2.01 2.00 2.00 2.11 2.14 2.01 1.87 1.78 1.64 1.50 1.40 1.40 1.42 1.42 1.40 1.45 1.59 1.63 1.67 1.67 1.73 1.78 1.73 1.70 1.80 1.74 1.66 1.75 1.50 1.37 1.32 1.08 1.09 1.13 1.17 1.29 1.37

GEFSSE_prec_meanprecacc_186.txt.gz
Total_Precipitation_Accumulation
0.13 0.17 0.31 0.27 0.23 0.27 0.34 0.37 0.27 0.24 0.25 0.25 0.24 0.25 0.30 0.37 0.35 0.32 0.30 0.37 0.46 0.51 0.53 0.56 0.64 0.71 0.71 0.70 0.66 0.59 0.53 0.56 0.62 0.66 0.61 0.59 0.69 0.86 1.13 1.27 1.25 0.88 0.74
0.09 0.20 0.34 0.31 0.26 0.27 0.30 0.29 0.24 0.23 0.23 0.22 0.21 0.24 0.27 0.27 0.30 0.25 0.24 0.30 0.39 0.46 0.46 0.45 0.48 0.57 0.62 0.63 0.62 0.54 0.50 0.55 0.64 0.70 0.61 0.50 0.67 0.94 1.17 1.22 1.33 0.87 0.76
0.14 0.23 0.28 0.31 0.26 0.23 0.21 0.21 0.23 0.23 0.20 0.19 0.20 0.22 0.22 0.22 0.23 0.24 0.26 0.26 0.31 0.37 0.43 0.39 0.40 0.44 0.46 0.52 0.56 0.56 0.55 0.54 0.68 0.82 0.96 0.65 0.50 0.94 1.11 1.12 1.03 0.75 0.68
0.21 0.23 0.21 0.24 0.22 0.18 0.15 0.17 0.21 0.21 0.17 0.17 0.23 0.23 0.19 0.21 0.25 0.25 0.26 0.24 0.27 0.27 0.30 0.33 0.38 0.35 0.34 0.41 0.40 0.49 0.58 0.68 0.88 1.20 1.40 0.86 0.51 0.68 0.91 0.86 0.76 0.65 0.60
0.22 0.18 0.17 0.20 0.19 0.15 0.14 0.15 0.18 0.19 0.17 0.17 0.21 0.21 0.18 0.22 0.26 0.26 0.23 0.25 0.30 0.27 0.21 0.23 0.30 0.28 0.29 0.30 0.29 0.42 0.56 0.69 1.01 1.30 1.22 1.10 0.93 0.78 0.83 0.80 0.76 0.72 0.67
0.12 0.11 0.12 0.17 0.16 0.13 0.14 0.14 0.15 0.17 0.17 0.15 0.17 0.19 0.19 0.24 0.31 0.29 0.25 0.28 0.34 0.33 0.25 0.23 0.24 0.25 0.26 0.25 0.27 0.43 0.56 0.77 1.02 0.90 0.83 0.95 0.97 0.92 0.89 0.98 1.06 0.96 0.83
0.07 0.07 0.09 0.15 0.14 0.12 0.14 0.14 0.14 0.15 0.15 0.13 0.15 0.17 0.17 0.21 0.26 0.29 0.27 0.27 0.29 0.29 0.25 0.25 0.24 0.26 0.28 0.29 0.33 0.45 0.61 0.89 0.98 0.80 0.75 0.89 0.89 0.80 0.89 1.10 1.35 1.25 1.03
0.06 0.06 0.10 0.15 0.15 0.13 0.13 0.14 0.14 0.13 0.13 0.13 0.14 0.14 0.16 0.20 0.25 0.27 0.24 0.23 0.23 0.21 0.20 0.24 0.28 0.30 0.33 0.35 0.37 0.46 0.60 0.67 0.69 0.73 0.68 0.72 0.58 0.61 0.87 1.13 1.34 1.27 1.08
0.13 0.08 0.12 0.15 0.15 0.14 0.16 0.17 0.17 0.15 0.15 0.16 0.15 0.15 0.16 0.18 0.21 0.23 0.24 0.23 0.23 0.24 0.24 0.27 0.31 0.36 0.37 0.38 0.39 0.46 0.60 0.61 0.63 0.77 0.79 0.84 0.72 0.83 1.11 1.25 1.26 1.28 1.14
0.35 0.24 0.23 0.24 0.24 0.21 0.18 0.19 0.23 0.22 0.19 0.20 0.20 0.19 0.19 0.20 0.23 0.25 0.26 0.26 0.26 0.31 0.34 0.39 0.43 0.42 0.40 0.43 0.46 0.55 0.67 0.65 0.68 0.81 0.99 0.86 0.85 1.06 1.37 1.49 1.46 1.45 1.38
0.75 0.59 0.46 0.41 0.33 0.28 0.25 0.23 0.29 0.31 0.30 0.29 0.30 0.28 0.30 0.37 0.41 0.46 0.39 0.44 0.45 0.49 0.53 0.59 0.64 0.61 0.54 0.51 0.63 0.78 0.75 0.82 0.97 1.04 1.11 0.94 0.95 1.21 1.47 1.60 1.63 1.65 1.59
0.99 0.88 0.76 0.71 0.49 0.40 0.39 0.50 0.56 0.50 0.50 0.53 0.63 0.61 0.69 0.81 0.79 0.58 0.63 0.83 0.90 1.02 1.02 1.07 1.14 1.01 0.87 0.81 1.22 1.47 0.96 1.04 1.12 1.22 1.40 1.23 1.25 1.55 1.79 1.69 1.63 1.67 1.62
1.22 0.95 0.91 1.07 0.89 0.75 0.81 0.74 0.72 0.75 0.85 0.89 0.89 0.93 1.08 0.95 0.79 0.76 0.85 1.05 1.23 1.39 1.53 1.82 1.92 1.59 1.59 1.65 1.75 1.72 1.22 1.03 1.10 1.14 1.46 1.49 1.55 1.92 2.21 2.01 1.86 1.79 1.68
1.40 1.09 0.96 1.05 1.18 1.09 0.97 0.95 0.90 0.86 0.94 1.00 1.15 1.18 1.30 1.24 1.16 1.20 1.36 1.48 1.68 1.80 2.08 2.20 2.48 2.28 2.04 1.82 1.77 1.69 1.51 1.43 1.35 1.51 1.74 1.47 1.60 2.03 2.42 2.38 2.19 1.93 1.76
1.67 1.45 1.25 1.14 1.27 1.27 1.20 1.15 1.05 1.02 1.04 1.22 1.37 1.45 1.54 1.59 1.71 1.81 1.75 1.92 1.96 2.05 2.22 2.52 2.58 2.74 2.76 2.68 2.33 2.03 1.95 1.82 1.68 1.79 1.97 1.85 1.73 1.91 2.30 2.61 2.42 2.12 1.92
2.10 1.94 1.66 1.41 1.31 1.33 1.33 1.35 1.40 1.35 1.50 1.62 1.74 1.78 1.95 2.11 2.24 2.41 2.40 2.40 2.22 2.21 2.44 2.67 2.82 3.25 3.15 3.02 2.54 2.28 2.06 1.98 1.79 1.71 1.92 2.08 1.74 1.66 1.89 2.37 2.63 2.47 2.24
2.36 2.35 2.19 2.00 1.92 1.95 2.06 2.00 1.88 1.99 2.07 2.17 2.24 2.24 2.32 2.39 2.55 2.70 2.66 2.55 2.54 2.53 2.67 2.84 3.02 3.13 2.90 2.78 2.63 2.45 2.21 2.03 1.77 1.70 1.79 1.97 1.82 1.67 1.76 1.99 2.35 2.49 2.42
2.47 2.76 2.79 2.61 2.70 2.81 2.92 2.82 2.60 2.59 2.61 2.60 2.56 2.54 2.54 2.60 2.73 2.97 2.79 2.66 2.94 2.81 2.93 3.26 3.26 3.23 3.11 2.94 2.78 2.55 2.34 2.12 1.72 1.61 1.59 1.79 2.06 1.80 1.79 1.96 2.10 2.18 2.43
2.63 3.06 3.22 3.29 3.46 3.47 3.47 3.40 3.33 3.23 3.09 2.84 2.84 2.77 2.56 2.54 2.62 2.85 2.72 2.74 2.85 3.11 3.15 2.94 3.37 3.35 3.25 3.11 2.62 2.38 2.10 1.88 1.67 1.50 1.52 1.57 1.81 1.69 1.65 1.75 1.85 1.95 2.37
3.05 3.40 3.81 3.96 4.02 3.78 3.64 3.57 3.42 3.20 3.00 2.86 2.86 2.72 2.47 2.47 2.50 2.86 2.67 2.61 2.74 3.01 2.98 2.99 3.27 3.25 3.01 3.03 2.49 2.12 1.94 1.61 1.57 1.57 1.40 1.43 1.48 1.28 1.36 1.58 1.99 1.72 1.85
3.57 3.76 4.00 4.39 4.49 4.21 4.12 3.99 3.84 3.50 3.33 3.02 2.69 2.38 2.25 2.22 2.35 2.71 2.49 2.70 2.67 2.72 2.71 2.76 3.01 3.07 2.81 2.90 2.78 2.30 1.77 1.40 1.36 1.37 1.39 1.42 1.29 1.34 1.63 1.86 2.03 2.03 1.86
3.36 3.81 4.12 4.10 3.98 3.67 3.67 3.89 4.08 4.02 3.57 3.01 2.69 2.54 2.20 2.10 2.18 2.32 2.45 2.35 2.43 2.51 2.50 2.55 2.78 2.71 2.40 2.57 2.69 2.64 2.03 1.68 1.33 1.05 1.31 1.36 1.30 1.48 1.58 1.61 1.88 2.14 2.12
2.81 3.26 3.35 3.20 3.12 2.92 2.90 3.13 3.31 3.54 3.35 2.98 2.66 2.41 2.17 2.05 2.00 2.06 2.16 2.18 2.22 2.13 2.24 2.41 2.39 2.38 2.23 2.21 2.39 2.61 2.26 1.84 1.49 1.10 0.98 1.08 1.27 1.42 1.46 1.59 1.58 1.72 1.80
1.95 2.18 2.33 2.41 2.46 2.46 2.47 2.62 2.74 2.85 2.81 2.68 2.58 2.31 2.04 1.82 1.75 1.76 1.77 1.79 1.86 1.90 2.09 1.93 1.96 2.15 2.20 2.07 2.14 2.15 2.09 2.08 1.93 1.40 1.05 1.00 1.21 1.29 1.28 1.24 1.34 1.53 1.63
1.59 1.80 1.98 2.16 2.31 2.42 2.37 2.40 2.54 2.79 2.71 2.48 2.30 2.15 1.98 1.80 1.64 1.56 1.60 1.59 1.58 1.61 1.73 1.75 1.97 1.98 2.02 1.99 1.94 1.93 2.01 2.01 1.87 1.67 1.33 1.21 1.19 1.05 1.08 1.14 1.25 1.45 1.62
1.44 1.61 1.79 1.92 1.96 2.04 2.08 2.07 2.06 2.16 2.17 2.04 1.91 1.82 1.68 1.54 1.45 1.45 1.45 1.44 1.42 1.47 1.60 1.64 1.69 1.69 1.75 1.79 1.74 1.73 1.84 1.77 1.68 1.76 1.51 1.38 1.33 1.09 1.11 1.15 1.18 1.30 1.38

GEFSSE_prec_meanprecacc_192.txt.gz
Total_Precipitation_Accumulation
0.17 0.21 0.37 0.32 0.26 0.30 0.38 0.42 0.30 0.26 0.27 0.28 0.28 0.32 0.38 0.45 0.43 0.39 0.37 0.44 0.54 0.59 0.61 0.65 0.74 0.81 0.79 0.77 0.76 0.70 0.65 0.68 0.70 0.70 0.65 0.66 0.77 0.93 1.22 1.36 1.31 0.93 0.79
0.12 0.24 0.41 0.36 0.30 0.30 0.32 0.33 0.27 0.25 0.26 0.26 0.26 0.32 0.36 0.37 0.39 0.33 0.31 0.39 0.48 0.54 0.56 0.56 0.58 0.67 0.71 0.72 0.71 0.63 0.60 0.65 0.74 0.78 0.67 0.55 0.73 1.03 1.26 1.31 1.40 0.93 0.82
0.17 0.27 0.34 0.37 0.30 0.26 0.24 0.24 0.26 0.25 0.22 0.22 0.24 0.28 0.28 0.29 0.30 0.31 0.34 0.35 0.38 0.44 0.52 0.50 0.50 0.53 0.54 0.61 0.66 0.65 0.61 0.60 0.75 0.90 1.02 0.67 0.55 1.02 1.20 1.21 1.11 0.82 0.73
0.24 0.27 0.27 0.32 0.26 0.20 0.17 0.20 0.24 0.24 0.20 0.18 0.25 0.26 0.22 0.24 0.29 0.31 0.32 0.31 0.32 0.33 0.36 0.42 0.48 0.43 0.40 0.47 0.48 0.57 0.64 0.74 0.94 1.25 1.42 0.87 0.53 0.77 1.01 0.95 0.83 0.70 0.65
0.26 0.22 0.25 0.26 0.23 0.17 0.16 0.18 0.20 0.22 0.19 0.18 0.23 0.24 0.21 0.25 0.29 0.29 0.26 0.29 0.35 0.33 0.29 0.30 0.37 0.36 0.36 0.38 0.38 0.51 0.62 0.76 1.07 1.32 1.23 1.11 0.95 0.85 0.91 0.88 0.82 0.76 0.72
0.15 0.14 0.18 0.21 0.18 0.14 0.16 0.16 0.17 0.19 0.18 0.17 0.19 0.22 0.21 0.26 0.32 0.31 0.27 0.32 0.38 0.38 0.30 0.28 0.29 0.32 0.35 0.35 0.38 0.54 0.66 0.86 1.07 0.92 0.84 0.96 0.99 0.98 0.97 1.06 1.11 1.01 0.89
0.08 0.09 0.12 0.18 0.15 0.13 0.15 0.15 0.16 0.17 0.16 0.14 0.16 0.19 0.20 0.23 0.28 0.31 0.28 0.29 0.34 0.34 0.30 0.30 0.30 0.34 0.37 0.38 0.43 0.56 0.70 0.95 1.00 0.82 0.76 0.90 0.92 0.86 0.96 1.17 1.41 1.31 1.09
0.06 0.07 0.11 0.17 0.16 0.14 0.15 0.16 0.15 0.14 0.15 0.14 0.14 0.15 0.18 0.21 0.26 0.28 0.26 0.26 0.30 0.28 0.27 0.30 0.36 0.38 0.40 0.42 0.45 0.56 0.68 0.72 0.70 0.76 0.69 0.73 0.61 0.66 0.93 1.18 1.39 1.32 1.15
0.14 0.10 0.13 0.16 0.17 0.15 0.17 0.18 0.18 0.16 0.16 0.16 0.15 0.16 0.16 0.19 0.22 0.23 0.24 0.24 0.25 0.28 0.31 0.35 0.40 0.43 0.46 0.47 0.46 0.54 0.67 0.66 0.64 0.79 0.79 0.85 0.75 0.87 1.16 1.30 1.31 1.31 1.19
0.36 0.25 0.25 0.25 0.26 0.22 0.18 0.20 0.24 0.23 0.20 0.20 0.20 0.20 0.20 0.21 0.23 0.25 0.26 0.27 0.28 0.33 0.37 0.44 0.49 0.48 0.47 0.50 0.52 0.63 0.75 0.69 0.68 0.81 1.00 0.88 0.88 1.10 1.43 1.54 1.50 1.49 1.42
0.76 0.60 0.47 0.41 0.35 0.30 0.26 0.24 0.30 0.32 0.30 0.30 0.30 0.28 0.31 0.37 0.41 0.46 0.40 0.46 0.46 0.51 0.55 0.63 0.68 0.66 0.60 0.57 0.69 0.85 0.81 0.84 0.98 1.04 1.12 0.97 0.98 1.25 1.52 1.65 1.69 1.70 1.63
0.99 0.89 0.77 0.71 0.49 0.40 0.40 0.50 0.57 0.51 0.50 0.53 0.63 0.61 0.69 0.81 0.79 0.58 0.64 0.84 0.92 1.04 1.04 1.09 1.17 1.05 0.90 0.84 1.25 1.52 0.99 1.06 1.13 1.23 1.42 1.26 1.29 1.60 1.84 1.76 1.71 1.75 1.69
1.22 0.96 0.92 1.08 0.90 0.75 0.81 0.74 0.72 0.76 0.85 0.89 0.89 0.93 1.08 0.95 0.79 0.76 0.85 1.05 1.23 1.40 1.53 1.83 1.93 1.60 1.61 1.67 1.77 1.74 1.24 1.04 1.11 1.14 1.49 1.53 1.60 1.97 2.26 2.08 1.96 1.90 1.78
1.40 1.09 0.96 1.05 1.18 1.09 0.97 0.95 0.90 0.86 0.94 1.00 1.15 1.18 1.30 1.24 1.16 1.20 1.36 1.48 1.68 1.81 2.08 2.21 2.49 2.29 2.06 1.85 1.79 1.71 1.53 1.45 1.36 1.52 1.77 1.51 1.63 2.08 2.47 2.44 2.31 2.06 1.85
1.68 1.46 1.26 1.14 1.28 1.27 1.21 1.15 1.05 1.02 1.04 1.22 1.37 1.45 1.54 1.59 1.71 1.81 1.75 1.92 1.96 2.06 2.23 2.54 2.61 2.76 2.78 2.71 2.36 2.05 1.96 1.83 1.69 1.79 1.98 1.91 1.81 1.97 2.37 2.72 2.59 2.22 1.98
2.12 1.95 1.66 1.42 1.32 1.34 1.33 1.35 1.41 1.35 1.50 1.62 1.74 1.78 1.95 2.11 2.25 2.42 2.41 2.41 2.23 2.22 2.45 2.70 2.85 3.28 3.18 3.05 2.57 2.31 2.08 2.00 1.80 1.72 1.93 2.12 1.80 1.72 2.00 2.52 2.75 2.54 2.28
2.38 2.36 2.19 2.01 1.94 1.96 2.08 2.01 1.89 2.00 2.08 2.17 2.25 2.26 2.34 2.40 2.56 2.70 2.67 2.56 2.55 2.53 2.69 2.87 3.05 3.16 2.93 2.81 2.66 2.49 2.24 2.05 1.79 1.71 1.80 1.99 1.85 1.72 1.83 2.09 2.46 2.58 2.50
2.50 2.78 2.80 2.62 2.71 2.83 2.93 2.83 2.62 2.61 2.63 2.61 2.57 2.55 2.55 2.62 2.74 2.98 2.80 2.67 2.95 2.82 2.94 3.29 3.30 3.27 3.15 2.97 2.82 2.58 2.36 2.14 1.74 1.63 1.62 1.80 2.07 1.82 1.82 2.02 2.17 2.24 2.50
2.66 3.08 3.24 3.31 3.46 3.48 3.49 3.42 3.35 3.26 3.11 2.86 2.85 2.78 2.59 2.56 2.65 2.87 2.73 2.75 2.86 3.12 3.17 2.97 3.40 3.39 3.27 3.13 2.65 2.42 2.13 1.92 1.70 1.53 1.55 1.59 1.83 1.70 1.66 1.78 1.90 1.99 2.43
3.08 3.41 3.83 3.97 4.03 3.80 3.66 3.60 3.44 3.22 3.03 2.89 2.88 2.74 2.50 2.50 2.52 2.87 2.68 2.62 2.75 3.03 3.00 3.00 3.30 3.28 3.03 3.05 2.52 2.16 1.97 1.65 1.62 1.61 1.43 1.47 1.51 1.30 1.38 1.60 2.01 1.75 1.89
3.59 3.77 4.02 4.41 4.50 4.23 4.14 4.02 3.87 3.53 3.36 3.06 2.72 2.42 2.28 2.25 2.37 2.72 2.51 2.71 2.68 2.74 2.73 2.78 3.03 3.09 2.82 2.91 2.81 2.33 1.80 1.43 1.40 1.40 1.41 1.45 1.32 1.36 1.66 1.90 2.06 2.05 1.88
3.39 3.83 4.14 4.13 4.01 3.71 3.73 3.94 4.15 4.08 3.62 3.07 2.73 2.58 2.24 2.13 2.20 2.34 2.47 2.37 2.44 2.53 2.54 2.58 2.79 2.73 2.42 2.58 2.72 2.67 2.05 1.70 1.34 1.07 1.33 1.39 1.32 1.50 1.61 1.64 1.91 2.16 2.14
2.84 3.29 3.37 3.25 3.17 2.99 3.00 3.25 3.39 3.60 3.41 3.04 2.70 2.45 2.20 2.08 2.02 2.08 2.18 2.21 2.23 2.15 2.28 2.44 2.41 2.39 2.25 2.22 2.41 2.63 2.27 1.84 1.50 1.11 0.99 1.10 1.30 1.45 1.48 1.61 1.61 1.74 1.82
1.99 2.23 2.38 2.47 2.53 2.54 2.57 2.70 2.79 2.89 2.85 2.72 2.62 2.35 2.09 1.85 1.77 1.79 1.79 1.81 1.87 1.91 2.11 1.96 1.99 2.16 2.22 2.08 2.15 2.17 2.11 2.10 1.93 1.41 1.06 1.02 1.22 1.32 1.31 1.26 1.37 1.54 1.64
1.64 1.87 2.06 2.25 2.38 2.49 2.44 2.46 2.59 2.83 2.75 2.53 2.34 2.18 2.00 1.83 1.67 1.59 1.63 1.61 1.60 1.63 1.74 1.76 1.99 2.00 2.04 2.01 1.96 1.94 2.02 2.02 1.88 1.69 1.35 1.22 1.19 1.06 1.09 1.15 1.27 1.46 1.63
1.51 1.69 1.88 2.01 2.02 2.09 2.15 2.15 2.14 2.21 2.21 2.08 1.94 1.85 1.70 1.56 1.48 1.48 1.49 1.48 1.45 1.49 1.61 1.65 1.71 1.71 1.77 1.80 1.75 1.74 1.85 1.78 1.70 1.78 1.53 1.40 1.35 1.10 1.11 1.16 1.19 1.31 1.39

GEFSSE_prec_meanprecacc_198.txt.gz
Total_Precipitation_Accumulation
0.19 0.26 0.46 0.39 0.30 0.35 0.47 0.51 0.38 0.36 0.39 0.40 0.39 0.41 0.47 0.54 0.51 0.48 0.47 0.56 0.66 0.73 0.72 0.74 0.83 0.90 0.90 0.92 0.88 0.83 0.77 0.82 0.82 0.77 0.70 0.72 0.83 1.02 1.30 1.43 1.39 0.99 0.85
0.14 0.29 0.48 0.42 0.33 0.35 0.40 0.40 0.34 0.34 0.36 0.34 0.34 0.40 0.45 0.45 0.46 0.41 0.42 0.51 0.60 0.68 0.68 0.67 0.70 0.80 0.81 0.82 0.81 0.72 0.66 0.74 0.82 0.85 0.73 0.62 0.81 1.13 1.36 1.39 1.48 1.00 0.88
0.19 0.31 0.39 0.41 0.33 0.30 0.28 0.29 0.33 0.33 0.29 0.27 0.29 0.34 0.35 0.36 0.38 0.39 0.41 0.43 0.47 0.53 0.61 0.60 0.64 0.70 0.66 0.71 0.75 0.71 0.67 0.66 0.82 0.97 1.10 0.74 0.61 1.10 1.29 1.29 1.21 0.89 0.79
0.27 0.31 0.32 0.36 0.30 0.24 0.20 0.23 0.29 0.30 0.26 0.24 0.30 0.31 0.27 0.32 0.38 0.38 0.38 0.37 0.39 0.40 0.43 0.51 0.61 0.61 0.57 0.59 0.58 0.64 0.71 0.82 1.00 1.32 1.49 0.94 0.59 0.84 1.07 1.02 0.94 0.79 0.71
0.30 0.29 0.30 0.30 0.27 0.21 0.19 0.20 0.24 0.28 0.25 0.24 0.28 0.29 0.26 0.31 0.36 0.36 0.32 0.36 0.41 0.39 0.37 0.40 0.49 0.53 0.51 0.48 0.47 0.58 0.69 0.83 1.11 1.36 1.27 1.17 1.01 0.93 0.98 0.97 0.93 0.83 0.78
0.17 0.19 0.22 0.25 0.22 0.18 0.19 0.18 0.21 0.24 0.24 0.22 0.23 0.25 0.24 0.30 0.37 0.36 0.32 0.38 0.43 0.43 0.37 0.38 0.43 0.52 0.57 0.49 0.48 0.63 0.73 0.92 1.10 0.94 0.87 1.01 1.06 1.07 1.06 1.17 1.18 1.06 0.95
0.10 0.11 0.15 0.22 0.19 0.16 0.18 0.18 0.18 0.20 0.20 0.18 0.20 0.22 0.23 0.28 0.32 0.35 0.32 0.34 0.39 0.42 0.38 0.41 0.46 0.58 0.60 0.53 0.57 0.69 0.78 1.00 1.03 0.85 0.79 0.97 1.00 0.92 1.04 1.24 1.47 1.36 1.15
0.08 0.09 0.14 0.20 0.19 0.17 0.17 0.18 0.17 0.16 0.17 0.17 0.18 0.18 0.21 0.25 0.30 0.31 0.28 0.29 0.37 0.34 0.35 0.46 0.55 0.51 0.50 0.55 0.59 0.70 0.74 0.75 0.73 0.78 0.71 0.78 0.65 0.73 0.98 1.24 1.45 1.39 1.20
0.15 0.12 0.16 0.19 0.20 0.18 0.19 0.21 0.20 0.18 0.18 0.18 0.18 0.18 0.18 0.21 0.24 0.25 0.27 0.27 0.30 0.39 0.48 0.58 0.58 0.55 0.60 0.61 0.60 0.65 0.75 0.71 0.65 0.80 0.81 0.89 0.81 0.94 1.22 1.36 1.37 1.37 1.24
0.37 0.27 0.27 0.28 0.30 0.26 0.21 0.23 0.26 0.25 0.22 0.22 0.22 0.21 0.21 0.22 0.25 0.27 0.28 0.30 0.32 0.39 0.52 0.67 0.67 0.64 0.63 0.64 0.66 0.76 0.89 0.77 0.71 0.83 1.02 0.90 0.92 1.16 1.49 1.59 1.56 1.54 1.46
0.77 0.62 0.49 0.43 0.37 0.32 0.28 0.26 0.33 0.34 0.32 0.32 0.32 0.30 0.32 0.39 0.43 0.48 0.41 0.48 0.50 0.55 0.61 0.73 0.82 0.85 0.74 0.69 0.81 0.98 0.93 0.89 1.01 1.07 1.17 1.00 1.02 1.31 1.58 1.70 1.74 1.76 1.67
1.00 0.90 0.78 0.72 0.50 0.41 0.41 0.52 0.59 0.53 0.52 0.56 0.65 0.63 0.70 0.83 0.81 0.59 0.65 0.86 0.95 1.08 1.08 1.14 1.24 1.13 0.99 0.95 1.37 1.61 1.07 1.10 1.15 1.27 1.48 1.31 1.35 1.66 1.91 1.82 1.78 1.83 1.78
1.22 0.96 0.93 1.09 0.90 0.76 0.82 0.75 0.74 0.77 0.87 0.90 0.90 0.94 1.09 0.95 0.80 0.77 0.87 1.08 1.26 1.42 1.56 1.86 1.97 1.64 1.66 1.73 1.83 1.78 1.28 1.08 1.14 1.18 1.53 1.58 1.65 2.02 2.32 2.15 2.02 1.98 1.91
1.40 1.10 0.97 1.06 1.19 1.10 0.99 0.96 0.91 0.87 0.95 1.01 1.16 1.19 1.31 1.24 1.16 1.21 1.38 1.50 1.70 1.84 2.15 2.26 2.54 2.32 2.07 1.86 1.82 1.75 1.56 1.47 1.38 1.55 1.81 1.54 1.67 2.12 2.53 2.52 2.38 2.17 1.97
1.68 1.46 1.27 1.15 1.28 1.28 1.22 1.16 1.06 1.03 1.05 1.22 1.38 1.46 1.54 1.59 1.71 1.82 1.76 1.94 1.98 2.08 2.28 2.59 2.65 2.80 2.81 2.74 2.39 2.09 1.99 1.85 1.70 1.81 2.02 1.94 1.83 2.00 2.42 2.79 2.67 2.36 2.06
2.12 1.96 1.67 1.42 1.32 1.34 1.34 1.36 1.42 1.36 1.51 1.62 1.75 1.78 1.96 2.12 2.25 2.43 2.42 2.43 2.25 2.25 2.49 2.75 2.89 3.31 3.21 3.09 2.62 2.34 2.11 2.03 1.82 1.74 1.95 2.15 1.83 1.76 2.06 2.66 2.90 2.66 2.35
2.39 2.37 2.20 2.02 1.94 1.97 2.08 2.02 1.90 2.01 2.09 2.18 2.25 2.26 2.35 2.42 2.58 2.72 2.69 2.59 2.58 2.57 2.74 2.92 3.08 3.19 2.97 2.86 2.72 2.53 2.28 2.09 1.81 1.75 1.82 2.02 1.90 1.77 1.90 2.17 2.55 2.65 2.57
2.52 2.80 2.82 2.64 2.72 2.83 2.95 2.84 2.63 2.62 2.64 2.63 2.57 2.57 2.57 2.65 2.77 3.01 2.83 2.71 3.00 2.87 3.00 3.35 3.36 3.33 3.22 3.03 2.89 2.64 2.41 2.19 1.78 1.67 1.64 1.84 2.13 1.87 1.88 2.07 2.21 2.28 2.54
2.68 3.10 3.27 3.32 3.47 3.49 3.50 3.43 3.37 3.27 3.12 2.87 2.86 2.80 2.61 2.59 2.68 2.89 2.77 2.80 2.91 3.18 3.24 3.02 3.47 3.47 3.35 3.20 2.70 2.47 2.17 1.96 1.75 1.56 1.59 1.62 1.87 1.75 1.71 1.81 1.93 2.03 2.46
3.08 3.42 3.84 3.98 4.05 3.82 3.68 3.61 3.46 3.24 3.05 2.90 2.89 2.76 2.52 2.52 2.55 2.90 2.72 2.66 2.79 3.09 3.09 3.08 3.38 3.35 3.09 3.11 2.54 2.20 2.02 1.69 1.65 1.63 1.45 1.49 1.54 1.33 1.41 1.62 2.05 1.77 1.92
3.59 3.78 4.03 4.42 4.52 4.26 4.17 4.06 3.91 3.58 3.42 3.12 2.75 2.43 2.31 2.29 2.41 2.77 2.54 2.76 2.72 2.80 2.82 2.86 3.10 3.17 2.87 2.95 2.86 2.39 1.84 1.46 1.43 1.43 1.43 1.46 1.33 1.38 1.69 1.94 2.10 2.08 1.90
3.40 3.84 4.16 4.14 4.04 3.76 3.80 4.04 4.23 4.16 3.70 3.15 2.80 2.62 2.28 2.19 2.25 2.39 2.53 2.42 2.48 2.60 2.63 2.67 2.87 2.81 2.48 2.62 2.78 2.75 2.12 1.76 1.39 1.08 1.36 1.42 1.35 1.53 1.63 1.68 1.95 2.21 2.16
2.84 3.29 3.39 3.27 3.19 3.03 3.06 3.36 3.52 3.69 3.46 3.08 2.76 2.49 2.25 2.13 2.06 2.12 2.24 2.26 2.27 2.18 2.35 2.52 2.46 2.45 2.33 2.27 2.45 2.72 2.37 1.94 1.58 1.16 1.02 1.12 1.33 1.49 1.51 1.64 1.63 1.77 1.85
1.99 2.23 2.39 2.49 2.55 2.57 2.61 2.78 2.90 2.98 2.89 2.76 2.66 2.39 2.13 1.89 1.81 1.83 1.86 1.87 1.92 1.94 2.17 2.01 2.01 2.21 2.29 2.16 2.21 2.21 2.17 2.19 2.05 1.48 1.10 1.04 1.25 1.35 1.33 1.29 1.40 1.57 1.67
1.64 1.87 2.09 2.29 2.42 2.52 2.48 2.51 2.65 2.88 2.82 2.59 2.39 2.23 2.05 1.86 1.70 1.62 1.67 1.67 1.65 1.67 1.79 1.82 2.05 2.06 2.10 2.07 2.03 2.00 2.07 2.09 1.97 1.78 1.42 1.28 1.25 1.10 1.11 1.18 1.30 1.48 1.65
1.51 1.70 1.91 2.04 2.05 2.12 2.18 2.19 2.19 2.28 2.30 2.17 2.02 1.92 1.76 1.60 1.51 1.51 1.52 1.53 1.50 1.53 1.67 1.72 1.78 1.78 1.83 1.86 1.82 1.79 1.92 1.86 1.78 1.86 1.60 1.46 1.41 1.15 1.14 1.18 1.22 1.35 1.42

GEFSSE_prec_meanprecacc_204.txt.gz
Total_Precipitation_Accumulation
0.24 0.30 0.51 0.45 0.36 0.41 0.52 0.59 0.49 0.48 0.50 0.51 0.49 0.50 0.56 0.63 0.62 0.59 0.60 0.70 0.81 0.88 0.86 0.86 0.91 1.02 1.08 1.05 0.97 0.90 0.88 0.97 0.93 0.85 0.77 0.79 0.89 1.09 1.38 1.52 1.50 1.04 0.90
0.18 0.33 0.53 0.48 0.40 0.43 0.46 0.45 0.39 0.40 0.45 0.47 0.48 0.53 0.55 0.53 0.55 0.52 0.54 0.65 0.75 0.82 0.80 0.75 0.75 0.90 0.97 0.94 0.91 0.82 0.78 0.89 0.91 0.92 0.81 0.68 0.86 1.20 1.45 1.49 1.60 1.09 0.97
0.20 0.34 0.43 0.46 0.38 0.36 0.34 0.33 0.37 0.38 0.37 0.37 0.40 0.45 0.46 0.45 0.46 0.48 0.50 0.52 0.59 0.65 0.71 0.69 0.71 0.78 0.75 0.79 0.82 0.80 0.79 0.79 0.92 1.10 1.25 0.81 0.65 1.17 1.37 1.38 1.31 0.98 0.85
0.28 0.34 0.35 0.40 0.35 0.28 0.25 0.26 0.34 0.35 0.32 0.31 0.38 0.39 0.36 0.41 0.46 0.44 0.45 0.44 0.47 0.48 0.52 0.60 0.72 0.71 0.65 0.66 0.64 0.73 0.81 0.89 1.13 1.55 1.70 1.04 0.64 0.89 1.13 1.09 1.01 0.85 0.75
0.30 0.31 0.32 0.33 0.31 0.25 0.21 0.23 0.28 0.32 0.31 0.30 0.35 0.38 0.37 0.42 0.43 0.42 0.39 0.42 0.47 0.46 0.43 0.47 0.58 0.66 0.62 0.55 0.54 0.66 0.77 0.92 1.23 1.52 1.41 1.28 1.07 0.99 1.04 1.01 0.96 0.87 0.82
0.18 0.20 0.25 0.27 0.24 0.20 0.21 0.21 0.23 0.27 0.27 0.27 0.30 0.35 0.33 0.38 0.43 0.43 0.38 0.43 0.49 0.50 0.44 0.45 0.50 0.64 0.70 0.58 0.56 0.70 0.81 1.04 1.25 1.08 1.00 1.08 1.12 1.15 1.12 1.21 1.22 1.10 1.00
0.10 0.12 0.17 0.25 0.22 0.19 0.20 0.20 0.20 0.23 0.23 0.22 0.25 0.27 0.28 0.34 0.38 0.40 0.37 0.38 0.44 0.47 0.42 0.48 0.56 0.72 0.79 0.68 0.66 0.76 0.85 1.12 1.16 0.96 0.91 1.08 1.06 0.99 1.09 1.30 1.52 1.41 1.19
0.08 0.10 0.15 0.23 0.21 0.19 0.19 0.21 0.19 0.18 0.20 0.20 0.20 0.21 0.24 0.28 0.33 0.35 0.31 0.32 0.39 0.36 0.38 0.52 0.67 0.66 0.70 0.72 0.70 0.79 0.82 0.84 0.80 0.84 0.82 0.88 0.70 0.77 1.04 1.30 1.51 1.44 1.26
0.16 0.14 0.19 0.21 0.22 0.20 0.21 0.22 0.22 0.20 0.20 0.20 0.20 0.20 0.21 0.24 0.27 0.27 0.28 0.28 0.32 0.42 0.52 0.65 0.75 0.67 0.69 0.72 0.72 0.77 0.85 0.78 0.71 0.86 0.89 0.96 0.85 0.99 1.28 1.41 1.42 1.42 1.29
0.38 0.29 0.31 0.30 0.31 0.28 0.23 0.24 0.28 0.26 0.23 0.23 0.24 0.23 0.23 0.25 0.27 0.28 0.29 0.31 0.34 0.41 0.56 0.81 0.94 0.77 0.72 0.73 0.80 0.91 1.03 0.88 0.79 0.90 1.09 0.95 0.96 1.20 1.54 1.64 1.61 1.58 1.51
0.78 0.64 0.51 0.47 0.40 0.34 0.29 0.27 0.34 0.35 0.34 0.34 0.34 0.33 0.40 0.47 0.47 0.51 0.42 0.50 0.52 0.57 0.64 0.81 1.01 1.01 0.87 0.78 0.92 1.08 1.05 0.98 1.10 1.16 1.23 1.03 1.04 1.35 1.63 1.74 1.79 1.82 1.73
1.01 0.91 0.81 0.75 0.52 0.42 0.42 0.53 0.63 0.56 0.57 0.61 0.70 0.69 0.81 0.92 0.88 0.62 0.66 0.87 0.96 1.10 1.09 1.16 1.32 1.28 1.14 1.11 1.53 1.74 1.16 1.14 1.18 1.31 1.52 1.32 1.37 1.70 1.97 1.86 1.81 1.88 1.83
1.23 0.97 0.94 1.11 0.93 0.77 0.83 0.77 0.76 0.81 0.92 0.95 0.93 0.98 1.14 0.98 0.82 0.80 0.91 1.11 1.29 1.46 1.62 1.89 2.03 1.73 1.75 1.90 1.99 1.90 1.35 1.12 1.17 1.21 1.55 1.60 1.67 2.06 2.38 2.20 2.05 2.03 1.96
1.41 1.10 0.97 1.07 1.21 1.11 0.99 0.97 0.93 0.89 0.97 1.04 1.19 1.21 1.33 1.26 1.19 1.25 1.45 1.56 1.76 1.91 2.23 2.32 2.61 2.37 2.11 1.92 1.90 1.82 1.61 1.50 1.40 1.58 1.83 1.57 1.69 2.15 2.59 2.57 2.42 2.24 2.03
1.69 1.47 1.27 1.16 1.30 1.30 1.24 1.18 1.07 1.05 1.06 1.24 1.40 1.48 1.55 1.61 1.74 1.86 1.81 2.00 2.02 2.12 2.32 2.64 2.70 2.83 2.85 2.77 2.43 2.12 2.02 1.88 1.72 1.83 2.04 1.96 1.85 2.03 2.47 2.86 2.76 2.45 2.09
2.15 1.97 1.68 1.43 1.33 1.36 1.36 1.38 1.43 1.37 1.53 1.65 1.77 1.80 1.97 2.13 2.28 2.46 2.46 2.48 2.29 2.29 2.54 2.80 2.94 3.37 3.28 3.15 2.66 2.36 2.13 2.05 1.84 1.76 2.00 2.18 1.84 1.77 2.10 2.71 2.97 2.70 2.38
2.40 2.38 2.20 2.02 1.95 1.98 2.11 2.03 1.91 2.02 2.09 2.19 2.27 2.28 2.36 2.44 2.61 2.76 2.72 2.63 2.61 2.61 2.78 2.96 3.13 3.24 3.04 2.93 2.77 2.56 2.31 2.11 1.83 1.78 1.86 2.08 1.95 1.80 1.94 2.22 2.59 2.68 2.60
2.52 2.80 2.83 2.64 2.74 2.85 2.97 2.87 2.64 2.63 2.64 2.64 2.59 2.58 2.58 2.67 2.79 3.05 2.87 2.75 3.04 2.91 3.03 3.39 3.41 3.38 3.29 3.10 2.95 2.70 2.45 2.24 1.80 1.70 1.68 1.90 2.20 1.93 1.91 2.09 2.23 2.31 2.58
2.68 3.11 3.28 3.33 3.49 3.52 3.54 3.46 3.39 3.28 3.14 2.88 2.86 2.81 2.63 2.61 2.69 2.93 2.81 2.85 2.95 3.21 3.27 3.06 3.53 3.54 3.42 3.26 2.75 2.53 2.23 2.02 1.82 1.60 1.62 1.65 1.92 1.81 1.78 1.84 1.95 2.06 2.50
3.08 3.42 3.85 3.99 4.07 3.84 3.71 3.64 3.49 3.26 3.06 2.91 2.90 2.78 2.55 2.55 2.57 2.93 2.75 2.70 2.82 3.13 3.13 3.12 3.44 3.42 3.17 3.18 2.59 2.25 2.09 1.74 1.70 1.68 1.48 1.51 1.58 1.38 1.46 1.69 2.10 1.80 1.94
3.60 3.79 4.05 4.43 4.54 4.27 4.20 4.11 3.97 3.64 3.46 3.15 2.77 2.45 2.33 2.31 2.44 2.81 2.59 2.83 2.76 2.85 2.87 2.90 3.15 3.23 2.93 3.00 2.93 2.46 1.90 1.53 1.50 1.47 1.47 1.49 1.35 1.41 1.74 2.03 2.17 2.15 1.95
3.40 3.85 4.16 4.16 4.05 3.77 3.83 4.09 4.29 4.22 3.74 3.18 2.82 2.65 2.30 2.20 2.27 2.42 2.57 2.46 2.52 2.66 2.68 2.70 2.93 2.89 2.55 2.67 2.88 2.88 2.26 1.91 1.49 1.13 1.39 1.45 1.37 1.56 1.66 1.72 2.01 2.29 2.24
2.84 3.29 3.39 3.28 3.21 3.05 3.09 3.38 3.56 3.76 3.52 3.13 2.80 2.53 2.27 2.14 2.08 2.15 2.29 2.30 2.32 2.22 2.42 2.59 2.52 2.51 2.39 2.33 2.51 2.83 2.53 2.11 1.71 1.25 1.08 1.15 1.36 1.53 1.54 1.67 1.67 1.83 1.93
1.99 2.23 2.39 2.50 2.57 2.59 2.63 2.80 2.94 3.04 2.95 2.81 2.72 2.45 2.17 1.92 1.82 1.85 1.90 1.92 1.97 1.99 2.25 2.07 2.06 2.27 2.36 2.23 2.29 2.28 2.26 2.30 2.18 1.60 1.18 1.09 1.29 1.39 1.37 1.32 1.42 1.63 1.72
1.64 1.88 2.09 2.30 2.44 2.54 2.49 2.53 2.68 2.92 2.87 2.66 2.45 2.31 2.12 1.91 1.74 1.65 1.71 1.71 1.70 1.72 1.84 1.86 2.11 2.12 2.15 2.14 2.11 2.08 2.16 2.18 2.05 1.88 1.53 1.37 1.31 1.15 1.15 1.22 1.35 1.55 1.70
1.52 1.72 1.92 2.05 2.06 2.13 2.19 2.20 2.20 2.31 2.36 2.24 2.08 1.99 1.82 1.66 1.56 1.55 1.57 1.59 1.55 1.59 1.73 1.78 1.84 1.83 1.88 1.94 1.88 1.85 1.99 1.94 1.88 1.96 1.69 1.55 1.49 1.22 1.19 1.23 1.27 1.41 1.48

GEFSSE_prec_meanprecacc_210.txt.gz
Total_Precipitation_Accumulation
0.30 0.36 0.58 0.49 0.40 0.45 0.57 0.63 0.52 0.52 0.57 0.57 0.55 0.56 0.63 0.74 0.77 0.79 0.83 0.95 1.07 1.11 1.06 1.02 1.04 1.18 1.22 1.16 1.07 0.98 0.97 1.10 1.02 0.93 0.84 0.85 0.95 1.17 1.48 1.63 1.55 1.07 0.95
0.22 0.38 0.60 0.52 0.43 0.46 0.49 0.49 0.43 0.44 0.50 0.55 0.56 0.59 0.63 0.62 0.67 0.67 0.74 0.87 0.94 0.99 0.96 0.88 0.86 1.05 1.07 1.03 1.00 0.92 0.89 1.02 1.00 1.00 0.88 0.74 0.94 1.30 1.54 1.57 1.64 1.12 1.02
0.22 0.37 0.47 0.48 0.39 0.38 0.36 0.36 0.41 0.43 0.44 0.47 0.49 0.52 0.53 0.52 0.54 0.59 0.62 0.63 0.69 0.74 0.79 0.76 0.78 0.85 0.80 0.86 0.91 0.90 0.94 0.90 1.01 1.18 1.31 0.85 0.72 1.27 1.44 1.45 1.36 1.01 0.88
0.28 0.36 0.38 0.42 0.36 0.29 0.26 0.29 0.38 0.40 0.39 0.39 0.45 0.45 0.42 0.47 0.55 0.55 0.53 0.52 0.54 0.54 0.56 0.64 0.76 0.75 0.70 0.71 0.72 0.85 0.95 1.00 1.22 1.64 1.78 1.10 0.69 0.95 1.18 1.13 1.05 0.88 0.78
0.31 0.33 0.35 0.35 0.33 0.26 0.22 0.25 0.30 0.35 0.35 0.35 0.41 0.44 0.44 0.50 0.53 0.51 0.46 0.48 0.51 0.50 0.47 0.51 0.62 0.70 0.67 0.62 0.62 0.75 0.88 1.02 1.34 1.59 1.46 1.33 1.12 1.06 1.08 1.04 0.98 0.90 0.86
0.18 0.21 0.27 0.29 0.25 0.21 0.22 0.22 0.25 0.31 0.33 0.34 0.38 0.45 0.43 0.46 0.52 0.51 0.46 0.48 0.54 0.54 0.48 0.50 0.56 0.69 0.75 0.65 0.62 0.77 0.91 1.16 1.33 1.11 1.02 1.10 1.15 1.20 1.15 1.24 1.26 1.14 1.04
0.11 0.13 0.18 0.26 0.23 0.19 0.21 0.21 0.21 0.25 0.27 0.26 0.28 0.31 0.34 0.39 0.42 0.44 0.41 0.42 0.47 0.49 0.44 0.51 0.61 0.77 0.85 0.77 0.73 0.84 0.96 1.23 1.21 0.98 0.93 1.09 1.08 1.03 1.13 1.34 1.57 1.44 1.23
0.08 0.10 0.16 0.23 0.22 0.20 0.20 0.22 0.20 0.19 0.22 0.22 0.22 0.23 0.26 0.31 0.35 0.37 0.33 0.34 0.40 0.37 0.39 0.53 0.70 0.71 0.80 0.86 0.79 0.88 0.93 0.94 0.85 0.87 0.84 0.90 0.71 0.82 1.08 1.33 1.54 1.48 1.29
0.16 0.14 0.19 0.21 0.22 0.21 0.23 0.23 0.23 0.21 0.22 0.22 0.22 0.22 0.23 0.26 0.29 0.29 0.29 0.29 0.33 0.43 0.52 0.66 0.77 0.71 0.77 0.82 0.81 0.87 0.99 0.90 0.78 0.91 0.91 0.98 0.87 1.02 1.32 1.45 1.44 1.45 1.32
0.38 0.30 0.31 0.30 0.32 0.28 0.23 0.25 0.29 0.27 0.24 0.25 0.26 0.26 0.26 0.26 0.28 0.30 0.30 0.32 0.35 0.43 0.58 0.84 0.98 0.84 0.82 0.82 0.90 1.02 1.18 0.99 0.87 0.97 1.12 0.97 0.98 1.23 1.58 1.68 1.62 1.60 1.54
0.78 0.64 0.52 0.47 0.40 0.35 0.29 0.28 0.35 0.37 0.35 0.36 0.37 0.36 0.42 0.48 0.48 0.51 0.43 0.51 0.53 0.58 0.66 0.88 1.11 1.16 1.01 0.90 1.04 1.20 1.16 1.09 1.20 1.21 1.25 1.05 1.06 1.38 1.66 1.76 1.81 1.85 1.77
1.02 0.92 0.81 0.76 0.52 0.42 0.42 0.54 0.63 0.56 0.58 0.62 0.70 0.70 0.82 0.93 0.88 0.62 0.67 0.88 0.98 1.11 1.11 1.18 1.37 1.40 1.23 1.23 1.67 1.86 1.26 1.24 1.26 1.35 1.56 1.36 1.38 1.74 2.00 1.89 1.84 1.93 1.88
1.23 0.97 0.95 1.12 0.93 0.77 0.83 0.77 0.77 0.81 0.92 0.95 0.94 0.99 1.15 0.99 0.82 0.81 0.92 1.12 1.30 1.47 1.63 1.91 2.05 1.78 1.83 2.04 2.20 2.04 1.44 1.19 1.24 1.24 1.58 1.62 1.69 2.09 2.41 2.24 2.09 2.08 2.04
1.41 1.10 0.98 1.08 1.22 1.12 1.00 0.97 0.93 0.89 0.98 1.05 1.20 1.22 1.34 1.28 1.20 1.26 1.47 1.59 1.78 1.93 2.26 2.35 2.65 2.43 2.18 2.04 2.06 1.94 1.69 1.57 1.47 1.62 1.86 1.58 1.71 2.19 2.63 2.62 2.46 2.31 2.13
1.69 1.47 1.28 1.16 1.30 1.31 1.25 1.18 1.08 1.05 1.07 1.24 1.40 1.48 1.56 1.61 1.75 1.87 1.83 2.03 2.05 2.15 2.34 2.67 2.73 2.87 2.89 2.84 2.52 2.20 2.09 1.95 1.79 1.89 2.08 2.00 1.88 2.08 2.53 2.91 2.82 2.55 2.18
2.15 1.97 1.68 1.43 1.34 1.37 1.36 1.39 1.43 1.37 1.53 1.65 1.77 1.80 1.97 2.14 2.28 2.47 2.47 2.50 2.32 2.31 2.57 2.81 2.95 3.38 3.29 3.18 2.70 2.41 2.17 2.09 1.91 1.85 2.09 2.24 1.90 1.85 2.16 2.78 3.08 2.80 2.43
2.40 2.38 2.21 2.03 1.95 1.99 2.11 2.04 1.92 2.02 2.09 2.20 2.28 2.28 2.36 2.45 2.62 2.76 2.74 2.66 2.63 2.62 2.80 2.98 3.14 3.27 3.07 2.96 2.81 2.59 2.35 2.14 1.88 1.86 1.94 2.14 2.02 1.86 1.99 2.29 2.65 2.71 2.61
2.53 2.81 2.83 2.65 2.74 2.85 2.98 2.88 2.65 2.63 2.65 2.64 2.59 2.58 2.58 2.68 2.80 3.06 2.89 2.77 3.06 2.92 3.05 3.41 3.43 3.41 3.34 3.15 2.99 2.74 2.49 2.27 1.84 1.74 1.74 1.97 2.27 1.97 1.96 2.14 2.27 2.33 2.60
2.68 3.11 3.29 3.35 3.50 3.53 3.55 3.47 3.40 3.29 3.15 2.90 2.87 2.82 2.64 2.63 2.71 2.94 2.83 2.87 2.97 3.23 3.29 3.07 3.54 3.56 3.45 3.29 2.77 2.56 2.26 2.05 1.85 1.66 1.71 1.73 1.99 1.91 1.86 1.91 2.01 2.11 2.54
3.09 3.43 3.86 4.00 4.07 3.85 3.71 3.65 3.51 3.28 3.09 2.93 2.92 2.81 2.57 2.57 2.59 2.95 2.78 2.73 2.84 3.15 3.15 3.13 3.45 3.43 3.18 3.20 2.62 2.29 2.12 1.78 1.76 1.75 1.56 1.56 1.63 1.45 1.56 1.78 2.15 1.84 1.99
3.60 3.79 4.05 4.44 4.54 4.28 4.21 4.12 3.99 3.66 3.48 3.16 2.79 2.47 2.36 2.33 2.46 2.83 2.61 2.84 2.78 2.87 2.90 2.91 3.17 3.24 2.94 3.02 2.98 2.50 1.94 1.59 1.56 1.53 1.52 1.54 1.41 1.48 1.82 2.10 2.23 2.23 2.00
3.41 3.86 4.17 4.16 4.06 3.78 3.84 4.11 4.32 4.25 3.76 3.20 2.85 2.68 2.33 2.22 2.28 2.43 2.59 2.47 2.53 2.68 2.70 2.73 2.96 2.92 2.57 2.69 2.91 2.91 2.29 1.96 1.55 1.18 1.44 1.49 1.44 1.64 1.75 1.82 2.12 2.38 2.31
2.87 3.34 3.45 3.29 3.23 3.07 3.12 3.41 3.59 3.78 3.54 3.16 2.84 2.56 2.30 2.17 2.10 2.17 2.30 2.31 2.33 2.25 2.44 2.62 2.53 2.53 2.41 2.35 2.53 2.86 2.54 2.13 1.74 1.29 1.14 1.22 1.42 1.61 1.64 1.77 1.76 1.89 1.99
2.03 2.27 2.44 2.56 2.61 2.62 2.66 2.84 2.98 3.07 2.98 2.86 2.77 2.49 2.22 1.95 1.86 1.88 1.93 1.94 2.00 2.01 2.27 2.09 2.07 2.28 2.38 2.25 2.32 2.31 2.28 2.32 2.20 1.63 1.21 1.15 1.35 1.46 1.45 1.41 1.53 1.72 1.79
1.75 1.94 2.14 2.38 2.50 2.57 2.53 2.58 2.73 2.96 2.91 2.70 2.50 2.41 2.22 1.99 1.79 1.68 1.75 1.75 1.74 1.75 1.87 1.90 2.13 2.14 2.17 2.16 2.14 2.12 2.19 2.20 2.08 1.90 1.54 1.40 1.35 1.19 1.20 1.27 1.40 1.60 1.76
1.58 1.80 1.98 2.15 2.13 2.17 2.23 2.26 2.26 2.36 2.41 2.29 2.15 2.07 1.90 1.73 1.61 1.60 1.63 1.66 1.61 1.65 1.78 1.83 1.87 1.85 1.91 1.97 1.93 1.90 2.05 1.99 1.93 2.01 1.72 1.57 1.51 1.25 1.24 1.28 1.31 1.46 1.53